Wind_Speed
16 17 18 18 18 17 16 16 16 17 18 18 18 20 21 20 19 15 18 14 11 16 10 11 15 18 14 18 23 20 16 17 21 21 18 16 9 12 3 11 13 12 15 14 16
17 17 17 17 18 20 19 17 17 16 17 19 19 19 19 18 22 25 26 20 23 11 15 18 18 18 16 18 19 20 17 25 21 19 18 23 13 15 13 10 15 16 19 17 15
19 18 18 18 18 18 19 19 19 18 17 17 17 19 20 18 15 14 9 28 24 24 22 21 25 20 24 22 24 25 24 24 24 20 21 25 27 21 18 24 17 18 21 15 17
20 20 20 20 20 21 21 20 19 19 18 18 17 18 16 11 10 7 10 10 11 16 23 26 24 26 25 27 26 29 29 27 27 28 26 28 26 23 24 23 21 19 20 18 18
20 21 22 23 23 23 22 22 21 21 21 18 15 15 13 11 16 9 1 5 8 14 24 24 28 28 32 28 28 31 29 30 29 31 30 28 30 31 27 26 24 19 22 21 19
18 19 21 22 23 24 24 24 23 22 22 20 16 12 15 22 10 13 13 14 13 12 17 24 28 28 31 32 34 31 32 32 32 32 31 29 32 28 27 27 28 21 23 23 21
19 20 21 22 23 24 24 25 27 26 23 19 17 13 16 22 18 16 15 19 20 17 17 21 27 29 27 34 30 33 34 34 34 32 31 27 36 34 28 29 27 25 24 23 19
21 21 23 24 25 26 27 28 30 27 25 21 13 14 11 15 19 23 24 25 24 24 24 22 20 23 29 24 28 33 33 30 32 32 30 24 33 27 28 27 27 22 22 16 21
20 21 22 22 23 24 26 29 24 21 12 8 9 15 19 3 15 17 23 21 21 24 24 25 21 20 21 23 21 26 28 37 31 29 27 29 38 28 27 26 28 26 17 17 22
22 23 23 23 25 27 31 25 20 14 6 8 16 7 16 13 5 3 5 10 15 17 21 19 16 18 20 22 27 32 32 31 32 29 28 32 35 28 23 23 28 24 20 21 24
23 24 25 26 26 28 27 23 2 8 15 14 13 14 21 10 13 18 10 8 13 14 25 24 19 27 42 38 35 33 25 31 32 29 30 32 34 24 22 26 29 25 20 22 23
27 26 27 27 28 22 12 10 8 6 12 21 26 28 33 29 24 21 20 16 16 20 22 24 30 45 28 32 33 33 32 32 29 28 27 27 29 29 24 25 28 28 23 22 24
29 29 30 30 27 12 12 11 7 10 9 23 22 22 21 20 24 22 23 22 23 22 26 30 42 26 34 33 30 33 32 30 31 25 25 27 29 31 30 28 26 28 30 27 22
32 32 31 29 17 16 11 8 8 10 7 16 11 7 8 8 11 16 23 26 26 30 23 28 34 33 33 36 34 33 30 28 26 22 21 22 22 31 24 25 24 28 25 19 19
33 33 28 12 14 10 11 10 10 9 6 6 8 7 5 8 3 3 15 16 24 26 23 32 30 36 37 42 32 38 24 27 25 20 24 29 18 24 21 24 24 23 21 20 21
34 25 12 5 5 10 13 13 6 6 10 1 3 7 14 5 3 2 4 15 13 22 29 31 28 29 39 35 30 29 28 27 21 20 20 27 21 26 23 26 20 22 21 18 19
33 11 7 7 9 12 9 7 5 7 4 6 11 4 17 12 12 7 11 10 13 15 23 31 30 29 32 30 36 29 26 18 19 20 26 19 21 24 23 22 22 23 22 15 10
23 5 8 6 11 8 6 5 6 13 12 11 12 16 16 16 10 8 13 13 17 16 21 24 27 33 29 30 36 34 31 17 31 14 20 24 26 22 22 24 22 21 10 9 11
14 7 5 11 6 3 5 5 10 14 17 15 16 18 19 16 9 11 14 7 8 10 8 18 30 29 33 25 27 39 27 35 24 23 20 17 17 18 18 17 13 15 17 15 13
14 6 5 6 4 3 3 6 9 9 13 15 16 11 18 12 4 16 9 7 8 7 14 18 13 33 28 31 30 33 28 23 21 28 24 16 14 8 6 10 15 15 15 17 15
11 3 5 2 4 3 3 6 13 13 12 10 18 16 17 16 17 16 13 5 3 13 15 18 7 19 34 33 30 25 24 31 21 20 17 16 10 9 6 8 12 15 16 19 18
8 4 6 3 4 3 7 9 10 11 13 9 9 14 12 12 14 16 4 5 6 11 13 13 5 16 19 23 31 31 29 30 17 26 18 9 7 6 3 13 10 13 17 18 18
6 3 5 8 4 8 16 17 14 12 13 10 11 12 15 15 7 6 5 2 3 7 5 7 9 12 6 18 28 29 33 26 27 15 22 13 10 6 3 5 10 8 17 17 18
4 5 4 2 2 6 14 16 13 14 9 8 17 13 12 13 12 8 8 1 3 13 11 12 13 17 7 11 22 32 33 28 27 16 17 21 12 9 11 12 9 9 12 17 19
4 3 2 4 9 11 13 16 16 12 12 17 10 8 15 15 16 11 4 16 5 8 5 5 18 25 10 19 27 30 26 29 27 24 18 20 15 9 10 11 10 12 15 18 19
4 5 6 11 9 10 12 13 13 15 17 16 16 19 18 17 15 16 18 11 7 4 5 6 12 19 14 17 30 11 27 28 25 29 19 12 16 12 5 10 7 9 15 17 18
3 6 4 9 6 7 9 13 18 16 12 12 17 18 17 16 18 21 18 19 16 14 13 7 8 9 7 15 23 13 18 20 20 27 19 15 7 8 8 2 4 8 15 17 17
Wind_Direction
358 357 353 349 346 344 342 340 339 339 337 334 335 333 329 327 317 288 248 239 212 232 209 228 223 209 222 237 229 236 252 250 251 257 265 263 214 254 250 288 293 285 277 272 291
354 351 350 346 343 340 338 336 334 334 332 332 331 331 326 331 309 275 257 236 232 215 207 221 216 204 217 224 235 233 238 244 252 263 278 291 256 249 256 230 259 271 275 267 247
349 346 343 340 338 333 332 333 331 330 328 324 325 330 334 342 295 266 229 221 222 226 233 241 248 220 230 228 228 233 239 250 254 257 271 272 268 278 287 279 276 289 285 311 296
346 343 341 339 335 332 332 329 326 323 319 321 322 324 331 320 255 79 124 137 199 226 231 235 242 244 230 237 228 241 242 247 258 269 279 274 268 272 270 279 289 289 284 290 291
345 341 339 337 333 330 329 324 319 315 316 313 313 315 325 235 243 285 230 274 272 219 224 218 226 230 236 234 241 239 244 253 258 262 270 271 276 279 273 272 286 288 286 280 273
342 337 334 332 329 327 324 319 314 310 307 303 302 298 268 266 267 268 276 267 264 261 242 227 231 230 240 240 244 248 253 254 258 262 267 266 267 261 261 269 266 273 273 272 277
342 337 334 330 327 325 321 318 314 309 302 293 285 275 271 258 273 279 270 264 260 262 258 249 240 245 241 249 253 259 258 259 256 260 260 259 262 261 266 265 270 270 269 265 271
341 338 334 331 328 324 320 317 310 301 295 290 267 245 258 267 265 259 255 253 250 246 249 266 267 249 244 259 249 249 254 258 251 251 251 247 260 266 269 266 266 262 272 279 281
338 331 328 325 321 317 316 316 308 303 280 267 217 219 265 261 229 259 249 254 252 240 240 245 255 249 235 242 253 237 244 240 253 249 248 240 255 256 266 262 264 264 274 275 275
346 345 340 332 324 321 318 309 292 282 245 222 242 226 243 259 210 270 277 235 251 243 224 220 228 233 233 221 230 230 236 245 255 254 247 248 260 255 263 266 269 272 260 272 278
344 341 339 336 328 325 323 316 244 216 222 263 295 228 295 233 273 267 260 246 248 233 224 202 210 219 221 220 235 241 242 247 248 246 241 258 263 256 258 264 262 259 254 264 281
343 339 335 333 330 321 294 327 353 337 295 281 268 262 258 269 273 264 261 251 233 231 223 215 215 222 223 231 229 244 250 253 260 261 258 253 257 269 255 261 268 272 267 264 274
342 337 333 328 325 295 313 318 309 305 276 279 266 259 249 235 245 244 240 234 241 228 227 220 226 229 228 232 234 234 234 243 251 258 259 262 267 261 260 263 263 270 273 272 274
340 336 330 323 302 329 306 342 297 323 284 279 194 190 173 222 255 228 236 227 235 237 238 233 237 235 228 233 228 235 229 240 251 257 257 251 265 257 263 264 259 262 259 256 253
338 334 326 323 309 307 347 313 320 278 283 113 125 137 186 227 327 61 202 231 237 239 229 240 229 230 239 226 226 242 234 236 238 250 259 254 258 270 275 268 265 253 259 261 254
337 334 349 353 303 296 309 307 272 239 247 122 44 338 224 229 229 202 254 220 257 242 251 244 243 233 234 242 231 240 234 243 238 238 245 246 250 265 263 265 260 256 258 257 241
341 333 345 320 320 320 303 278 239 253 348 26 355 16 321 273 230 247 268 273 239 215 237 242 245 247 235 225 239 224 224 225 231 230 245 248 245 261 269 271 262 257 255 255 231
341 300 283 321 309 312 272 243 254 356 354 312 314 313 279 281 243 258 258 264 274 274 290 226 230 231 228 227 217 223 213 217 219 218 239 232 243 256 266 250 255 241 214 234 151
340 275 255 348 335 303 287 250 5 358 345 330 311 283 284 273 286 270 265 283 329 319 294 254 231 230 226 226 229 215 215 220 247 231 243 255 240 229 248 248 242 238 234 223 169
322 301 14 5 333 246 258 308 349 333 324 316 297 289 300 301 236 285 283 139 276 307 279 273 266 226 228 222 235 232 210 212 227 240 248 231 253 257 216 224 217 225 210 183 166
283 260 70 347 313 263 304 320 325 339 329 319 311 309 307 293 293 301 282 149 221 301 280 288 272 259 222 203 216 214 211 210 220 229 234 252 258 229 260 254 265 198 186 172 165
281 310 55 301 293 290 290 341 306 303 302 317 304 301 306 322 311 294 338 321 208 300 291 256 259 260 229 216 214 213 217 201 219 216 238 292 200 97 229 225 198 166 163 153 164
301 293 155 271 315 319 324 314 281 308 326 314 302 309 307 307 290 285 290 16 271 304 320 349 233 259 216 231 205 222 208 209 219 225 212 231 200 132 237 201 202 135 135 148 164
308 327 337 349 12 294 320 309 317 307 330 322 305 324 311 322 314 286 309 100 230 266 271 299 265 260 238 260 197 214 206 207 199 217 191 225 115 178 172 153 113 125 145 162 165
337 277 2 308 316 317 290 283 308 330 330 317 308 292 323 318 313 317 297 321 295 327 254 274 250 242 241 303 307 200 215 205 199 209 222 198 226 174 125 88 105 135 159 157 162
337 336 336 302 296 304 308 309 321 333 327 305 307 323 324 313 318 314 322 316 299 260 243 255 276 259 247 263 282 248 210 200 209 204 227 165 197 218 53 126 139 154 169 170 169
350 299 290 285 302 299 295 320 314 327 304 313 318 312 307 311 314 301 288 283 272 273 291 282 301 251 224 237 269 231 202 208 196 199 214 220 191 213 222 247 193 141 184 179 176
Height
828 825 823 820 818 815 814 811 809 806 803 800 795 791 788 785 783 784 779 774 774 773 775 778 777 773 771 767 763 756 771 766 754 748 735 715 725 713 718 731 726 724 722 720 723
828 826 823 821 818 814 812 810 807 804 802 798 796 791 790 784 781 772 768 768 770 771 773 769 770 767 766 764 763 764 764 755 734 728 731 719 718 719 724 727 730 726 717 714 720
826 824 822 819 817 815 813 808 805 803 800 799 795 789 784 780 772 752 755 759 764 767 769 768 765 757 761 752 751 749 755 738 727 720 719 723 718 712 723 731 720 723 718 714 718
826 823 820 817 815 811 808 806 803 801 798 795 792 788 785 786 769 752 757 758 761 762 766 766 764 758 754 751 740 750 736 735 729 722 721 721 715 718 720 720 712 714 714 714 716
826 823 819 815 812 809 806 803 800 797 795 793 791 789 787 775 759 755 759 759 759 758 757 755 756 752 745 741 735 733 731 727 723 722 719 716 718 717 716 712 710 711 713 712 712
827 823 820 816 812 808 804 801 799 796 793 791 790 790 788 771 756 756 756 756 754 752 746 748 742 738 733 733 729 722 721 720 718 718 716 721 715 713 713 709 706 706 707 705 704
827 824 820 816 811 807 802 797 793 790 788 787 786 786 778 758 755 754 755 752 751 751 747 740 739 732 728 727 717 719 725 717 713 713 713 712 716 715 705 703 701 701 700 697 699
827 823 818 814 809 804 799 793 788 784 781 780 781 783 768 755 752 750 749 746 748 749 748 745 737 730 726 721 720 727 722 728 710 710 708 717 717 707 698 697 696 692 691 691 696
825 821 817 812 808 803 797 789 782 779 778 778 780 777 756 746 747 745 745 743 742 742 744 746 741 731 729 733 736 721 726 717 718 701 704 707 704 699 693 692 694 688 687 691 689
822 818 814 809 804 798 791 782 778 777 775 775 771 770 748 740 735 739 739 740 739 738 736 739 738 737 732 727 723 718 718 719 717 703 697 700 693 684 686 690 691 682 682 687 682
822 817 812 807 801 795 788 776 770 765 765 755 747 748 735 735 736 735 736 737 736 734 730 727 740 726 698 700 696 701 706 704 696 685 698 696 688 680 685 686 683 678 676 679 678
819 814 809 804 799 792 788 779 777 782 769 755 745 738 736 737 735 733 736 734 732 731 727 723 718 676 699 697 703 706 707 700 691 681 685 685 686 677 673 678 676 672 667 667 671
816 811 806 801 794 789 785 781 781 778 769 744 727 722 721 726 724 725 726 726 726 719 714 712 677 701 695 695 702 695 700 700 699 689 679 684 687 678 669 665 667 667 663 662 661
814 808 803 797 792 786 779 782 780 778 765 716 716 715 719 719 718 713 712 717 716 714 706 701 688 686 691 690 686 692 681 691 697 701 708 684 699 671 669 667 662 658 653 653 654
812 806 799 796 795 786 785 782 781 779 750 708 714 715 709 715 708 706 705 710 711 706 708 687 689 684 684 668 678 668 678 683 689 701 700 691 700 665 667 667 659 652 648 648 646
810 803 799 794 795 792 788 783 782 774 739 711 711 720 711 710 706 702 706 704 702 705 694 682 673 673 667 666 665 668 680 682 682 691 703 685 695 668 667 656 650 645 640 637 635
807 803 799 798 794 791 789 785 779 752 726 728 729 727 725 710 710 705 707 704 706 707 704 689 679 665 662 673 663 665 681 702 708 694 673 673 683 658 648 642 640 642 636 628 625
803 800 797 795 793 791 790 780 767 732 737 733 724 720 720 706 709 708 708 704 693 702 707 683 689 665 647 652 656 658 665 675 694 686 678 660 676 653 629 625 626 628 623 624 634
799 795 794 792 791 791 791 773 747 744 740 738 733 727 715 702 706 699 698 701 708 719 722 677 669 646 647 643 643 650 654 638 665 648 658 642 628 624 625 625 626 624 624 628 635
801 791 789 791 790 789 786 768 756 749 748 744 743 724 718 709 727 713 698 715 717 720 735 688 680 646 636 644 638 636 631 670 657 681 671 646 643 636 631 624 621 623 621 624 636
798 783 787 790 790 782 778 762 752 749 748 746 741 735 723 714 704 703 698 713 723 715 707 695 692 656 637 631 639 634 634 642 647 644 660 666 647 607 618 618 614 611 613 621 634
791 782 785 787 786 779 767 757 755 747 739 739 738 735 729 724 716 705 707 708 718 713 706 684 694 670 638 615 620 623 627 635 643 655 640 642 642 611 614 611 603 605 609 616 632
787 780 783 784 784 778 762 756 743 740 738 737 737 732 724 725 725 714 709 712 716 724 718 701 682 668 655 641 618 619 617 618 632 627 644 649 635 606 610 610 601 604 607 623 632
791 792 780 779 784 788 772 756 746 735 737 735 731 728 729 720 709 714 701 718 720 721 723 722 692 675 665 642 620 625 614 610 626 640 633 634 632 620 614 613 611 616 620 626 631
796 789 790 787 783 783 777 764 754 747 742 737 730 729 726 721 712 710 714 711 710 719 720 721 684 666 670 670 640 611 611 611 619 626 628 623 627 615 609 611 612 619 622 628 633
801 797 792 789 782 778 769 757 755 753 755 745 739 732 729 727 721 720 712 709 709 717 717 714 682 666 667 682 656 616 607 607 612 621 612 612 626 602 605 607 615 619 624 630 632
806 808 805 790 779 784 768 764 759 758 750 743 743 738 731 728 724 718 712 706 699 700 700 700 688 663 687 677 655 635 612 605 609 611 616 632 626 611 618 618 619 618 621 626 630